GW4324 Weather Reports


time (UTC)temp
C
wind
direction
speed
KPH
gust
KPH
rain 1hr
cm
rain 24hr
cm
rain mn
cm
humidity
%
barometer
mb
20260507071803 8 42 1.6 3.2 0.00 0.00 0.00 74 1014.5
20260507071259 8 146 0.0 4.8 0.00 0.00 0.00 74 1014.7
20260507070756 8 64 0.0 3.2 0.00 0.00 0.00 75 1014.7
20260507070254 8 77 0.0 3.2 0.00 0.00 0.00 74 1014.6
20260507065750 8 340 1.6 3.2 0.00 0.00 0.00 73 1014.6
20260507065247 8 359 3.2 6.4 0.00 0.00 0.00 72 1014.5
20260507064744 8 305 3.2 6.4 0.00 0.00 0.00 72 1014.7
20260507064243 9 330 4.8 4.8 0.00 0.00 0.00 72 1014.5
20260507063740 10 349 4.8 8.0 0.00 0.00 0.00 69 1014.4
20260507063237 10 2 3.2 8.0 0.00 0.00 0.00 70 1014.5
20260507062734 10 354 4.8 11.3 0.00 0.00 0.00 68 1014.5
20260507062231 10 327 9.7 9.7 0.00 0.00 0.00 68 1014.6
20260507061729 10 6 3.2 4.8 0.00 0.00 0.00 72 1014.8
20260507061227 10 306 4.8 11.3 0.00 0.00 0.00 70 1014.6
20260507060724 10 335 3.2 8.0 0.00 0.00 0.00 73 1014.7
20260507060221 10 345 3.2 9.7 0.00 0.00 0.00 74 1014.6
20260507055717 10 330 3.2 4.8 0.00 0.00 0.00 76 1014.7
20260507055213 10 316 3.2 6.4 0.00 0.00 0.00 77 1014.5
20260507054709 10 293 0.0 4.8 0.00 0.00 0.00 78 1014.6
20260507054206 10 306 4.8 8.0 0.00 0.00 0.00 79 1014.6
20260507053704 10 3 1.6 3.2 0.00 0.00 0.00 79 1014.4
20260507053201 10 341 3.2 6.4 0.00 0.00 0.00 77 1014.6
20260507052700 10 343 6.4 8.0 0.00 0.00 0.00 78 1014.6
20260507052155 10 127 1.6 4.8 0.00 0.00 0.00 80 1014.6
20260507051653 11 310 3.2 6.4 0.00 0.00 0.00 79 1014.7
20260507051149 11 173 0.0 6.4 0.00 0.00 0.00 80 1014.5
20260507050647 10 110 1.6 3.2 0.00 0.00 0.00 80 1014.6
20260507050143 10 323 1.6 8.0 0.00 0.00 0.00 81 1014.4
20260507045640 10 110 3.2 8.0 0.00 0.00 0.00 84 1014.5
20260507045137 10 271 1.6 3.2 0.00 0.00 0.00 88 1014.3
20260507044634 11 94 0.0 4.8 0.00 0.00 0.00 86 1014.3
20260507044131 10 202 3.2 4.8 0.00 0.00 0.00 85 1014.4
20260507043627 10 201 3.2 9.7 0.00 0.00 0.00 88 1014.4
20260507043124 10 239 0.0 4.8 0.00 0.00 0.00 90 1014.3
20260507042620 10 140 1.6 3.2 0.00 0.00 0.00 92 1014.1
20260507042115 10 202 1.6 4.8 0.00 0.00 0.00 92 1014.2
20260507041612 10 147 1.6 3.2 0.00 0.00 0.00 93 1014.3
20260507041109 10 189 3.2 4.8 0.00 0.00 0.00 92 1014.2
20260507040606 10 156 3.2 3.2 0.00 0.00 0.00 92 1014.3
20260507035558 10 141 1.6 1.6 0.00 0.84 0.84 93 1014.3
20260507035055 10 121 0.0 1.6 0.00 0.84 0.84 94 1014.1
20260507034551 10 66 0.0 1.6 0.00 0.84 0.84 93 1014.1
20260507034049 10 110 0.0 0.0 0.00 0.84 0.84 93 1014.2
20260507033547 10 96 0.0 3.2 0.00 0.84 0.84 93 1014.3
20260507033044 10 94 1.6 3.2 0.00 0.84 0.84 93 1014.1
20260507032541 10 124 3.2 3.2 0.00 0.84 0.84 92 1014.1
20260507032037 10 67 3.2 4.8 0.00 0.84 0.84 91 1014.0
20260507031534 10 135 0.0 1.6 0.00 0.84 0.84 91 1014.3
20260507031031 10 140 0.0 1.6 0.00 0.84 0.84 89 1014.7
20260507030528 10 89 0.0 1.6 0.00 0.84 0.84 88 1014.1
20260507030026 10 157 0.0 3.2 0.00 0.84 0.84 88 1014.1
20260507025522 10 101 3.2 3.2 0.00 0.84 0.84 87 1013.9
20260507025020 10 103 3.2 3.2 0.00 0.84 0.84 87 1013.9
20260507024518 10 93 1.6 4.8 0.00 0.84 0.84 87 1014.1
20260507024014 10 89 3.2 3.2 0.00 0.84 0.84 86 1014.2
20260507023510 11 81 3.2 4.8 0.00 0.84 0.84 86 1014.1
20260507023008 11 67 4.8 6.4 0.00 0.84 0.84 86 1014.0
20260507022504 11 66 3.2 6.4 0.00 0.84 0.84 86 1014.0
20260507021959 11 56 6.4 9.7 0.00 0.84 0.84 86 1014.2
20260507021455 11 63 6.4 8.0 0.00 0.84 0.84 86 1014.2
20260507020953 11 70 8.0 8.0 0.00 0.84 0.84 86 1014.5
20260507020450 11 51 6.4 6.4 0.00 0.84 0.84 86 1014.7
20260507015946 11 60 8.0 9.7 0.00 0.84 0.84 86 1014.4
20260507015445 11 84 6.4 9.7 0.00 0.84 0.84 86 1014.4
20260507014942 11 71 6.4 12.9 0.00 0.84 0.84 86 1014.7
20260507014438 11 43 4.8 8.0 0.00 0.84 0.84 86 1014.6
20260507013934 11 58 6.4 9.7 0.00 0.84 0.84 86 1014.5
20260507013431 11 83 4.8 8.0 0.00 0.84 0.84 85 1014.6
20260507012929 11 62 8.0 8.0 0.00 0.84 0.84 85 1014.6
20260507012425 11 78 6.4 8.0 0.00 0.84 0.84 85 1014.4
20260507011922 11 19 9.7 14.5 0.00 0.84 0.84 85 1014.6
20260507011420 11 31 11.3 14.5 0.00 0.84 0.84 85 1014.3
20260507010919 11 31 12.9 14.5 0.00 0.84 0.84 84 1014.5
20260507010414 12 336 6.4 9.7 0.00 0.84 0.84 84 1014.5
20260507005912 12 3 6.4 11.3 0.00 0.84 0.84 84 1014.5
20260507005409 12 24 4.8 8.0 0.00 0.84 0.84 86 1014.2
20260507004905 12 11 3.2 6.4 0.00 0.84 0.84 86 1014.1
20260507004402 12 4 3.2 6.4 0.00 0.84 0.84 86 1014.1
20260507003900 12 1 8.0 11.3 0.00 0.84 0.84 85 1013.9
20260507003355 12 29 8.0 8.0 0.00 0.84 0.84 85 1013.7
20260507002850 12 70 6.4 11.3 0.00 0.84 0.84 84 1013.9
20260507002347 12 350 4.8 12.9 0.00 0.84 0.84 83 1013.6
20260507001844 12 46 9.7 14.5 0.00 0.84 0.84 83 1013.4
20260507001340 12 54 6.4 11.3 0.00 0.84 0.84 83 1013.4
20260507000837 12 24 9.7 9.7 0.00 0.84 0.84 83 1013.3
20260507000333 12 14 16.1 16.1 0.00 0.84 0.84 82 1013.1
20260506235829 12 33 8.0 14.5 0.00 0.84 0.84 83 1013.0
20260506235326 12 38 4.8 16.1 0.00 0.84 0.84 83 1012.9
20260506234822 12 354 8.0 14.5 0.00 0.84 0.84 83 1012.7
20260506234320 12 46 9.7 9.7 0.00 0.84 0.84 84 1012.5
20260506233818 12 356 11.3 16.1 0.00 0.84 0.84 83 1012.7
20260506233313 12 331 3.2 12.9 0.00 0.84 0.84 84 1012.7
20260506232810 12 13 6.4 20.9 0.00 0.84 0.84 83 1012.6
20260506232306 12 357 9.7 22.5 0.00 0.84 0.84 83 1012.6
20260506231803 12 335 6.4 17.7 0.00 0.84 0.84 84 1012.5
20260506231301 12 356 6.4 22.5 0.00 0.84 0.84 83 1012.3
20260506230758 12 329 16.1 17.7 0.00 0.84 0.84 84 1012.3
20260506230255 13 23 9.7 19.3 0.00 0.84 0.84 83 1012.1
20260506225751 13 346 17.7 19.3 0.00 0.84 0.84 83 1012.0
20260506225248 13 320 14.5 24.1 0.00 0.84 0.84 83 1012.0
20260506224744 13 356 11.3 20.9 0.00 0.84 0.84 84 1012.0
20260506224242 13 348 12.9 19.3 0.00 0.84 0.84 83 1011.7
20260506223738 13 343 11.3 17.7 0.00 0.84 0.84 84 1011.7
20260506223233 13 17 12.9 20.9 0.00 0.84 0.84 83 1011.6
20260506222731 13 0 14.5 25.7 0.00 0.84 0.84 84 1011.6
20260506222226 13 1 9.7 24.1 0.00 0.84 0.84 84 1011.3
20260506221724 14 12 14.5 17.7 0.00 0.84 0.84 85 1011.3
20260506221222 14 297 11.3 20.9 0.00 0.84 0.84 85 1011.3
20260506220719 15 43 8.0 19.3 0.00 0.84 0.84 86 1011.1
20260506220214 15 14 9.7 17.7 0.00 0.84 0.84 86 1010.8
20260506215711 15 349 9.7 14.5 0.00 0.84 0.84 86 1010.9
20260506215206 15 0 11.3 25.7 0.00 0.84 0.84 85 1010.8
20260506214703 15 8 11.3 17.7 0.00 0.84 0.84 85 1010.5
20260506214200 16 64 14.5 20.9 0.00 0.84 0.84 84 1010.3
20260506213659 17 353 1.6 3.2 0.00 0.84 0.84 84 1010.2
20260506213156 17 73 1.6 6.4 0.00 0.84 0.84 84 1010.0
20260506212653 17 307 0.0 4.8 0.00 0.84 0.84 84 1009.9
20260506212148 17 198 3.2 6.4 0.00 0.84 0.84 84 1009.9
20260506211643 17 231 6.4 9.7 0.00 0.84 0.84 84 1009.9
20260506211140 17 180 1.6 6.4 0.00 0.84 0.84 84 1009.7
20260506210637 18 229 3.2 8.0 0.00 0.84 0.84 83 1009.7
20260506210134 18 211 3.2 6.4 0.00 0.84 0.84 83 1009.6
20260506205631 17 230 3.2 9.7 0.00 0.84 0.84 84 1009.4
20260506205125 18 221 6.4 16.1 0.00 0.84 0.84 84 1009.4
20260506204624 18 199 8.0 12.9 0.00 0.84 0.84 85 1009.3
20260506204121 18 207 3.2 12.9 0.00 0.84 0.84 85 1009.4
20260506203619 18 222 4.8 12.9 0.00 0.84 0.84 85 1009.4
20260506203115 18 231 1.6 8.0 0.00 0.84 0.84 86 1009.2
20260506202613 18 204 4.8 17.7 0.00 0.84 0.84 86 1009.3
20260506202109 18 221 9.7 14.5 0.00 0.84 0.84 85 1009.3
20260506201607 18 215 4.8 12.9 0.00 0.84 0.84 85 1008.9
20260506201103 18 255 3.2 17.7 0.00 0.84 0.84 85 1009.2
20260506200559 18 211 4.8 14.5 0.00 0.84 0.84 88 1009.1
20260506200056 18 274 4.8 8.0 0.00 0.84 0.84 88 1009.1
20260506195553 17 219 6.4 12.9 0.00 0.84 0.84 91 1009.2
20260506195049 17 212 6.4 12.9 0.00 0.84 0.84 91 1009.2
20260506194547 17 211 8.0 12.9 0.00 0.84 0.84 88 1009.3
20260506194043 18 198 11.3 16.1 0.00 0.84 0.84 86 1009.2
20260506193541 18 218 8.0 14.5 0.00 0.84 0.84 86 1009.1
20260506193038 18 194 9.7 17.7 0.00 0.84 0.84 86 1009.1
20260506192535 18 192 6.4 14.5 0.00 0.84 0.84 87 1009.2
20260506192031 18 210 6.4 16.1 0.00 0.84 0.84 87 1009.1
20260506191527 18 218 14.5 20.9 0.00 0.84 0.84 86 1009.2
20260506191024 18 230 4.8 14.5 0.00 0.84 0.84 87 1009.2
20260506190521 17 224 11.3 20.9 0.00 0.84 0.84 87 1009.1
20260506190019 18 188 12.9 17.7 0.00 0.84 0.84 87 1009.2
20260506185515 18 208 11.3 19.3 0.00 0.84 0.84 87 1009.2
20260506185011 18 200 14.5 17.7 0.00 0.84 0.84 88 1009.2
20260506184509 17 191 6.4 19.3 0.00 0.84 0.84 87 1009.1
20260506184006 18 223 12.9 17.7 0.00 0.84 0.84 88 1009.2
20260506183501 17 207 12.9 24.1 0.00 0.84 0.84 88 1009.3
20260506182959 17 205 11.3 17.7 0.00 0.84 0.84 88 1009.2
20260506182455 17 196 11.3 22.5 0.00 0.84 0.84 89 1009.1
20260506181953 17 209 11.3 19.3 0.00 0.84 0.84 90 1009.3
20260506181451 17 210 11.3 17.7 0.00 0.84 0.84 90 1009.3
20260506180947 17 215 9.7 16.1 0.00 0.84 0.84 92 1009.4
20260506180444 17 200 4.8 11.3 0.00 0.84 0.84 94 1009.6
20260506175940 16 186 6.4 11.3 0.00 0.84 0.84 94 1009.7
20260506175437 16 186 4.8 11.3 0.00 0.84 0.84 95 1009.6
20260506174934 16 211 6.4 8.0 0.00 0.84 0.84 95 1009.7
20260506174433 16 199 4.8 9.7 0.00 0.84 0.84 96 1009.6
20260506173929 16 203 4.8 9.7 0.00 0.84 0.84 96 1009.6
20260506173426 16 198 3.2 11.3 0.00 0.84 0.84 97 1009.7
20260506172923 15 208 4.8 14.5 0.00 0.84 0.84 97 1009.8
20260506172420 15 225 9.7 17.7 0.00 0.84 0.84 98 1009.8
20260506171916 15 197 8.0 9.7 0.00 0.84 0.84 98 1009.7
20260506171414 15 180 3.2 12.9 0.00 0.84 0.84 98 1009.8
20260506170912 15 208 3.2 8.0 0.05 0.84 0.84 98 1009.8
20260506170408 15 188 6.4 12.9 0.05 0.84 0.84 98 1009.8
20260506165907 15 184 6.4 11.3 0.05 0.81 0.81 98 1009.9
20260506165404 15 202 4.8 9.7 0.05 0.81 0.81 98 1009.9
20260506164900 15 201 6.4 9.7 0.00 0.81 0.81 98 1009.8
20260506164357 15 219 3.2 6.4 0.00 0.81 0.81 98 1009.9
20260506163855 15 183 3.2 9.7 0.00 0.81 0.81 98 1009.8
20260506163349 15 183 4.8 8.0 0.00 0.81 0.81 98 1009.8
20260506162845 15 166 6.4 6.4 0.00 0.81 0.81 97 1009.9
20260506162343 15 185 1.6 4.8 0.00 0.81 0.81 98 1010.1
20260506161840 15 124 0.0 1.6 0.00 0.81 0.81 98 1010.0
20260506161337 15 102 0.0 1.6 0.00 0.81 0.81 97 1010.1
20260506160830 15 31 0.0 3.2 0.00 0.81 0.81 97 1010.0
20260506160326 15 112 1.6 3.2 0.00 0.81 0.81 97 1009.9
20260506155825 15 204 4.8 6.4 0.00 0.81 0.81 97 1010.0
20260506155321 15 86 1.6 1.6 0.00 0.81 0.81 97 1010.0
20260506153433 15 53 0.0 3.2 0.00 0.81 0.81 97 1009.9
20260506152930 15 139 0.0 4.8 0.00 0.81 0.81 97 1009.8
20260506152427 15 197 1.6 6.4 0.05 0.81 0.81 97 1009.6
20260506151926 15 159 1.6 6.4 0.00 0.81 0.81 97 1009.7
20260506151422 15 119 1.6 3.2 0.00 0.81 0.81 98 1009.5
20260506150920 15 176 3.2 4.8 0.05 0.81 0.81 98 1009.6
20260506150416 15 154 1.6 4.8 0.05 0.81 0.81 98 1009.5
20260506145913 15 117 3.2 3.2 0.05 0.79 0.79 98 1009.5
20260506145409 15 96 3.2 3.2 0.13 0.79 0.79 98 1009.7
20260506144907 15 180 4.8 4.8 0.13 0.79 0.79 98 1009.6
20260506144403 15 139 3.2 3.2 0.05 0.76 0.76 98 1009.9
20260506143902 15 196 4.8 4.8 0.13 0.76 0.76 97 1010.0
20260506143358 15 211 4.8 6.4 0.13 0.74 0.74 97 1010.0
20260506142856 15 193 6.4 6.4 0.13 0.74 0.74 98 1009.8
20260506142354 15 153 3.2 4.8 0.00 0.71 0.71 98 1009.9
20260506141852 15 230 4.8 4.8 0.05 0.71 0.71 98 1009.8
20260506141350 15 169 4.8 6.4 0.13 0.71 0.71 97 1009.9
20260506140848 15 187 4.8 6.4 0.18 0.71 0.71 98 1009.8
20260506140344 15 239 3.2 4.8 0.23 0.71 0.71 98 1009.8
20260506135841 15 198 3.2 4.8 0.30 0.69 0.69 98 1009.8
20260506135338 14 176 3.2 4.8 0.43 0.66 0.66 98 1009.7
20260506134834 14 104 3.2 4.8 0.36 0.64 0.64 98 1009.9
20260506134331 14 245 0.0 3.2 0.13 0.58 0.58 98 1009.7
20260506133828 14 110 3.2 3.2 0.18 0.56 0.56 98 1009.6
20260506133325 14 61 3.2 3.2 0.13 0.56 0.56 99 1009.5
20260506132821 14 122 0.0 3.2 0.18 0.53 0.53 99 1009.5
20260506132319 14 112 3.2 3.2 0.18 0.53 0.53 99 1009.8
20260506131817 14 128 3.2 3.2 0.13 0.51 0.51 99 1009.9
20260506131312 14 86 3.2 3.2 0.13 0.51 0.51 99 1010.0
20260506130810 13 73 1.6 4.8 0.13 0.48 0.48 99 1010.0
20260506130306 13 132 1.6 3.2 0.18 0.48 0.48 99 1009.9
20260506125804 13 142 4.8 6.4 0.36 0.46 0.46 99 1009.8
20260506125305 13 166 3.2 4.8 0.43 0.43 0.43 99 1009.8
20260506124800 13 162 3.2 4.8 0.30 0.41 0.41 99 1010.1
20260506124257 13 140 3.2 4.8 0.30 0.38 0.38 99 1010.2
20260506123755 13 127 3.2 3.2 0.18 0.33 0.33 99 1010.4
20260506123253 13 125 3.2 4.8 0.23 0.33 0.33 99 1010.2
20260506122750 13 116 3.2 4.8 0.36 0.30 0.30 99 1010.6
20260506122247 13 97 0.0 4.8 0.36 0.28 0.28 99 1010.6
20260506121745 13 76 0.0 3.2 0.36 0.23 0.23 99 1010.8
20260506121241 13 121 1.6 3.2 0.30 0.20 0.20 99 1010.7
20260506120738 13 84 0.0 3.2 0.18 0.18 0.18 99 1010.7
20260506120236 13 174 1.6 3.2 0.13 0.15 0.15 99 1010.4
20260506115734 13 47 0.0 3.2 0.05 0.15 0.15 99 1010.3
20260506115232 13 141 3.2 3.2 0.13 0.13 0.13 99 1010.3
20260506114730 13 95 3.2 3.2 0.05 0.13 0.13 99 1010.2
20260506114227 13 55 0.0 3.2 0.05 0.10 0.10 99 1009.9
20260506113725 13 66 3.2 4.8 0.13 0.10 0.10 98 1010.0
20260506113223 13 37 0.0 3.2 0.05 0.10 0.10 98 1009.9
20260506112719 13 103 3.2 6.4 0.05 0.10 0.10 98 1009.9
20260506112216 13 114 0.0 3.2 0.13 0.08 0.08 98 1010.0
20260506111714 13 89 1.6 3.2 0.18 0.08 0.08 98 1010.0
20260506111212 13 93 1.6 3.2 0.13 0.05 0.05 98 1009.9
20260506110708 13 161 1.6 3.2 0.13 0.05 0.05 97 1010.1
20260506110206 13 53 4.8 4.8 0.05 0.03 0.03 97 1009.6
20260506105702 13 131 0.0 3.2 0.05 0.03 0.03 96 1009.8
20260506105159 13 132 3.2 4.8 0.00 0.00 0.00 97 1009.7
20260506104658 13 197 1.6 1.6 0.05 0.00 0.00 97 1009.7
20260506104155 13 110 3.2 4.8 0.05 0.00 0.00 96 1009.5
20260506103652 13 110 3.2 3.2 0.00 0.00 0.00 96 1009.4
20260506103149 13 114 0.0 3.2 0.00 0.00 0.00 96 1009.5
20260506102647 13 189 0.0 3.2 0.00 0.00 0.00 96 1009.5
20260506102144 13 139 0.0 3.2 0.00 0.00 0.00 95 1009.5
20260506101640 13 133 0.0 3.2 0.00 0.00 0.00 96 1009.5
20260506101137 13 179 3.2 4.8 0.00 0.00 0.00 96 1009.5
20260506100636 13 336 0.0 3.2 0.00 0.00 0.00 96 1009.2
20260506100134 13 14 1.6 3.2 0.00 0.00 0.00 96 1009.2
20260506095632 13 113 4.8 4.8 0.00 0.00 0.00 97 1009.3
20260506095128 13 48 1.6 3.2 0.00 0.00 0.00 97 1009.4
20260506094626 13 4 3.2 3.2 0.00 0.00 0.00 96 1009.3
20260506094123 13 337 4.8 4.8 0.00 0.00 0.00 95 1009.2
20260506093622 14 322 0.0 4.8 0.00 0.00 0.00 93 1009.2
20260506093119 14 133 3.2 4.8 0.00 0.00 0.00 92 1009.1
20260506092617 14 80 0.0 3.2 0.00 0.00 0.00 92 1009.2
20260506092113 13 91 3.2 3.2 0.00 0.00 0.00 92 1009.3
20260506091611 13 99 1.6 1.6 0.00 0.00 0.00 93 1009.3
20260506091108 13 50 1.6 3.2 0.00 0.00 0.00 93 1009.3
20260506090606 13 68 1.6 3.2 0.00 0.00 0.00 93 1009.3
20260506085600 13 358 1.6 3.2 0.00 0.00 0.00 93 1009.4
20260506085056 13 22 0.0 0.0 0.00 0.00 0.00 93 1009.4
20260506084553 13 31 0.0 3.2 0.00 0.00 0.00 92 1009.2
20260506084049 13 60 0.0 1.6 0.00 0.00 0.00 92 1009.3
20260506083546 13 55 0.0 3.2 0.00 0.00 0.00 91 1009.4
20260506083043 13 129 0.0 1.6 0.00 0.00 0.00 91 1009.3
20260506082540 14 15 1.6 3.2 0.00 0.00 0.00 91 1009.3
20260506082036 14 7 3.2 3.2 0.00 0.00 0.00 90 1009.4
20260506081534 14 142 0.0 1.6 0.00 0.00 0.00 91 1009.2
20260506081031 14 116 1.6 3.2 0.00 0.00 0.00 91 1009.5
20260506080529 13 142 3.2 3.2 0.00 0.00 0.00 91 1009.5
20260506073512 13 354 0.0 3.2 0.00 0.00 0.00 93 1009.4
20260506073009 13 6 0.0 1.6 0.00 0.00 0.00 93 1009.5
20260506072506 13 135 0.0 1.6 0.00 0.00 0.00 94 1009.3
20260506072004 13 102 0.0 1.6 0.00 0.00 0.00 94 1009.5